Probability
28 29 29 27 23 20 17 16 16 14 13 14 16 15 15 18 21 22 22 22 21 20 18 19 19 16 16 17 15 12 11 10 9 9 10 16 23 22 17 15 11 6 5
27 27 27 25 23 20 18 17 15 12 10 11 12 13 13 14 17 19 18 17 18 18 17 18 18 16 16 16 14 11 10 9 8 8 9 14 21 22 20 15 9 5 4
24 25 25 24 22 19 18 17 14 12 9 8 9 10 11 12 14 15 15 15 16 17 17 18 18 18 18 16 13 11 9 9 8 7 7 10 14 19 21 17 9 5 4
22 22 22 22 20 19 18 17 15 13 11 9 9 11 12 13 13 14 16 17 17 16 15 14 16 17 16 14 12 10 10 10 10 8 6 6 8 14 20 17 11 6 5
22 21 21 21 21 20 18 17 16 14 11 10 11 12 13 11 9 11 14 16 15 14 12 10 11 11 10 8 7 7 7 10 12 11 8 7 8 12 14 13 8 5 5
22 22 22 22 21 20 18 16 16 15 13 11 11 11 10 7 4 4 7 10 12 12 10 8 7 6 4 2 2 2 3 6 9 10 9 8 8 9 8 7 5 4 3
24 23 23 21 18 16 15 16 19 18 15 13 11 9 7 3 1 0 2 5 8 9 8 7 6 5 2 1 1 1 1 2 3 4 5 6 7 7 7 5 4 4 3
26 25 23 20 16 15 15 17 19 18 15 13 11 9 5 2 0 0 1 3 5 5 5 4 5 4 2 1 1 1 1 1 1 0 1 3 4 5 6 5 4 5 5
28 27 25 20 18 18 18 17 17 16 13 11 10 8 5 1 0 0 1 4 6 5 3 3 3 3 1 0 1 1 2 2 2 1 0 1 1 2 2 3 4 4 4
30 29 26 23 21 20 18 17 17 15 13 10 9 8 6 2 1 0 1 4 6 6 4 2 1 1 0 0 0 0 1 2 3 2 1 1 1 1 0 1 1 1 1
31 29 27 24 22 19 17 18 17 16 13 10 9 9 7 4 2 1 1 2 3 4 3 2 1 0 0 0 0 0 0 1 2 3 3 2 2 2 1 0 0 0 0
30 28 25 22 18 15 15 16 15 13 11 8 8 8 6 4 2 1 0 0 1 2 2 1 1 0 0 0 0 0 0 0 1 2 2 2 2 2 1 0 0 0 0
24 24 22 18 13 10 10 10 9 8 7 6 6 6 4 2 1 1 0 0 0 0 0 0 0 0 0 0 0 0 0 0 0 1 1 1 1 1 0 0 0 0 0
17 17 16 12 8 5 4 4 4 4 4 4 4 4 3 1 0 0 0 0 0 0 0 0 0 0 0 0 0 0 0 0 0 0 0 0 0 0 0 0 0 0 0
12 12 9 7 4 2 1 1 1 1 1 1 2 1 1 0 0 0 0 0 0 0 0 0 0 0 0 0 0 0 0 0 0 0 0 0 0 0 0 0 0 0 0
9 8 5 2 1 0 0 0 0 0 0 0 0 0 0 0 0 0 0 0 0 0 0 0 0 0 0 0 0 0 0 0 0 0 0 0 0 0 0 0 0 0 0
5 4 2 0 0 0 0 0 0 0 0 0 0 0 0 0 0 0 0 0 0 0 0 0 0 0 0 0 0 0 0 0 0 0 0 0 0 0 0 0 0 0 0
1 1 0 0 0 0 0 0 0 0 0 0 0 0 0 0 0 0 0 0 0 0 0 0 0 0 0 0 0 0 0 0 0 0 0 0 0 0 0 0 0 0 0
0 0 0 0 0 0 0 0 0 0 0 0 0 0 0 0 0 0 0 0 0 0 0 0 0 0 0 0 0 0 0 0 0 0 0 0 0 0 0 0 0 0 0
0 0 0 0 0 0 0 0 0 0 0 0 0 0 0 0 0 0 0 0 0 0 0 0 0 0 0 0 0 0 0 0 0 0 0 0 0 0 0 0 0 0 0
0 0 0 0 0 0 0 0 0 0 0 0 0 0 0 0 0 0 0 0 0 0 0 0 0 0 0 0 0 0 0 0 0 0 0 0 0 0 0 0 0 0 0
0 0 0 0 0 0 0 0 0 0 0 0 0 0 0 0 0 0 0 0 0 0 0 0 0 0 0 0 0 0 0 0 0 0 0 0 0 0 0 0 0 0 0
0 0 0 0 0 0 0 0 0 0 0 0 0 0 0 0 0 0 0 0 0 0 0 0 0 0 0 0 0 0 0 0 0 0 0 0 0 0 0 0 0 0 0
0 0 0 0 0 0 0 0 0 0 0 0 0 0 0 0 0 0 0 0 0 0 0 0 0 0 0 0 0 0 0 0 0 0 0 0 0 0 0 0 0 0 0
0 0 0 0 0 0 0 0 0 0 0 0 0 0 0 0 0 0 0 0 0 0 0 0 0 0 0 0 0 0 0 0 0 0 0 0 0 0 0 0 0 0 0
0 0 0 0 0 0 0 0 0 0 0 0 0 0 0 0 0 0 0 0 0 0 0 0 0 0 0 0 0 0 0 0 0 0 0 0 0 0 0 0 0 0 0
Wind_Speed
4 4 3 3 4 4 4 4 4 3 3 4 5 5 5 5 5 5 4 5 5 4 4 4 4 3 2 2 2 2 1 1 2 3 2 1 1 0 2 3 3 5 7
4 3 3 3 3 3 3 3 3 3 3 3 3 4 4 5 5 5 5 5 5 4 4 3 3 3 3 3 2 2 1 1 2 2 2 1 1 2 2 3 3 4 3
4 4 3 2 3 3 2 2 3 3 3 3 3 4 4 4 4 4 4 4 4 4 3 3 3 3 3 3 2 2 1 2 1 1 2 2 1 1 1 2 3 2 4
4 3 3 2 2 2 2 2 2 3 3 3 3 3 3 2 3 3 3 3 3 3 2 2 2 2 3 3 2 2 2 2 2 2 2 2 1 1 0 1 2 2 3
4 4 3 3 3 3 2 2 2 2 2 2 3 3 2 2 2 3 3 3 3 2 1 1 1 1 1 0 1 1 1 1 1 2 2 2 1 1 1 1 2 2 2
5 4 4 3 3 3 3 3 3 2 3 3 3 3 2 1 2 3 3 3 3 2 1 1 1 1 2 2 2 2 1 0 1 2 2 2 2 2 2 2 2 2 3
5 4 4 4 4 3 3 4 4 3 4 4 3 4 4 5 6 6 5 3 3 3 2 1 1 2 3 1 1 1 1 1 0 1 2 2 2 2 2 2 3 3 3
5 4 4 4 4 4 4 4 4 4 5 4 4 4 5 5 6 6 5 3 3 4 4 3 3 4 4 4 2 1 1 1 0 1 0 1 1 1 1 2 3 4 4
5 4 4 5 5 5 5 5 5 5 5 5 5 6 6 6 6 5 4 3 5 5 5 6 6 5 7 6 3 2 2 2 2 2 1 1 1 2 2 2 3 3 4
5 5 5 5 5 5 6 6 6 5 6 6 7 7 8 7 7 7 5 3 4 4 5 7 9 8 8 7 4 3 3 3 3 2 1 2 2 1 1 1 3 3 3
6 6 6 6 6 6 6 6 6 6 7 7 7 7 7 8 9 10 8 4 4 5 5 5 6 9 9 8 6 4 3 3 3 2 1 2 2 2 3 2 3 2 3
7 8 8 7 7 7 7 6 6 6 7 6 6 7 7 7 9 10 11 10 7 6 6 5 5 7 7 7 6 6 6 5 2 3 3 4 3 3 3 3 3 2 2
8 9 9 9 8 7 7 6 5 4 5 5 6 6 6 6 7 11 11 11 11 7 5 5 4 4 4 4 5 6 6 5 4 4 4 4 3 3 2 2 2 2 3
10 9 9 10 11 11 9 8 7 6 5 5 6 6 6 6 5 5 4 6 7 6 4 3 3 3 3 3 4 4 4 5 4 4 4 4 4 4 3 3 3 3 3
10 10 10 10 11 11 11 10 9 9 6 6 6 6 6 6 5 6 5 4 4 4 2 2 2 3 3 4 4 4 4 5 5 4 4 4 4 4 4 4 4 4 4
8 8 8 8 8 9 10 11 17 13 16 16 13 10 8 7 6 8 9 8 8 7 4 4 5 5 5 5 5 5 4 4 4 4 4 4 4 4 4 4 4 4 4
8 7 7 7 7 8 8 9 9 10 14 15 14 12 10 7 8 8 7 7 6 5 5 5 5 5 5 5 5 5 5 4 4 4 4 4 4 4 4 5 5 5 5
8 9 7 6 6 6 7 7 7 8 7 7 7 7 7 6 6 6 5 4 4 5 5 6 5 5 5 5 5 5 4 4 5 5 5 5 5 5 5 5 5 5 6
8 6 6 6 6 6 6 6 7 8 7 7 5 3 2 2 3 5 5 4 6 6 6 6 6 5 5 4 4 4 4 4 5 5 5 6 6 6 6 6 6 7 6
7 8 6 5 5 5 5 5 6 5 5 5 5 4 2 2 2 4 5 5 6 6 5 5 5 5 5 4 4 4 5 5 6 6 6 5 5 5 6 6 6 6 6
6 7 7 5 5 5 5 5 5 5 5 6 6 5 4 3 6 7 6 6 6 5 5 4 4 5 5 5 5 6 7 6 6 6 6 6 6 5 5 5 6 6 6
4 5 5 5 5 5 4 4 4 5 6 6 5 5 5 5 6 6 6 5 5 5 5 5 5 6 6 6 6 6 7 7 7 7 6 6 5 5 5 5 5 5 6
5 6 6 6 5 4 4 5 6 6 6 6 6 5 6 6 6 5 5 5 5 5 5 4 5 6 6 6 6 7 7 7 7 7 7 7 7 6 5 5 6 6 6
6 6 6 5 5 5 6 6 6 6 6 6 6 5 5 5 5 5 5 4 4 5 5 5 6 8 9 7 6 7 6 6 7 7 9 8 8 6 5 5 6 7 6
5 5 5 5 5 6 6 6 6 6 6 5 5 5 5 5 4 4 4 4 4 4 5 5 5 7 10 12 10 8 7 7 6 7 8 7 7 6 6 7 6 6 6
5 5 6 6 6 6 5 5 5 5 5 5 5 4 4 4 5 4 4 3 3 4 4 5 7 9 9 8 9 8 7 8 8 8 7 6 6 5 7 6 8 7 7
Wind_Direction
174 180 184 178 190 199 199 206 205 213 209 202 198 192 189 186 191 191 196 194 193 195 205 210 212 229 267 280 261 247 236 215 253 276 270 255 211 193 166 227 217 193 203
166 164 175 174 173 187 199 199 191 194 190 190 191 188 189 188 188 185 193 191 187 190 200 201 206 214 227 259 277 263 243 226 229 264 301 294 242 209 202 233 249 234 215
159 160 162 175 177 181 189 183 167 164 171 183 185 186 185 184 184 184 187 185 181 187 193 195 205 221 233 238 246 276 291 280 232 234 257 265 259 248 230 247 259 269 262
134 136 140 157 164 155 154 153 151 159 168 179 178 173 166 165 169 175 178 177 172 176 185 192 199 219 229 238 237 255 273 290 296 285 275 274 272 279 261 277 286 290 283
125 129 135 144 145 133 122 119 125 136 144 133 129 129 134 151 170 170 166 163 153 149 153 165 162 157 134 195 246 254 272 285 300 293 287 304 315 344 344 311 292 299 299
121 123 125 125 118 113 112 110 105 102 97 98 101 99 97 99 93 119 129 124 118 123 126 132 117 94 113 133 129 98 87 168 294 307 307 309 321 346 346 329 330 326 308
115 113 116 113 108 109 116 109 107 105 98 89 89 95 88 65 62 81 86 90 94 97 93 82 16 30 44 6 169 156 108 102 185 280 320 321 337 352 342 328 319 309 285
113 112 113 117 112 107 99 89 87 88 87 86 82 86 84 67 64 70 76 96 86 79 70 69 70 51 22 7 5 48 64 36 245 207 47 330 343 344 333 313 300 298 289
115 116 115 114 110 108 103 96 90 90 87 80 74 74 77 63 50 64 76 98 91 79 71 62 64 60 30 25 35 42 41 42 69 86 136 239 294 318 333 336 332 323 314
97 95 96 95 98 100 100 99 94 89 86 81 72 67 71 69 54 59 70 87 94 88 79 70 60 54 37 27 31 36 31 4 356 344 294 274 275 304 315 338 351 343 333
83 87 86 89 94 94 94 95 97 96 92 87 83 75 68 61 57 55 58 62 70 78 75 70 58 53 48 40 39 39 20 337 321 327 359 25 29 33 37 28 27 12 348
83 85 82 80 87 93 94 93 97 102 102 99 94 85 70 61 56 56 60 61 63 74 75 75 73 62 56 47 45 28 14 1 1 28 40 37 33 31 17 7 8 359 317
86 85 82 78 71 72 78 82 85 89 91 90 90 87 78 68 62 62 64 63 65 74 77 87 84 66 52 48 44 24 20 26 25 30 26 23 19 13 355 349 347 331 305
89 88 85 81 71 59 54 52 53 45 65 78 78 81 77 64 50 46 64 72 75 76 73 82 75 43 26 30 36 38 42 39 30 28 20 12 6 2 0 353 344 339 330
93 91 87 82 81 72 63 50 55 47 43 69 75 74 75 69 38 38 48 45 41 45 35 64 68 62 56 51 47 46 42 37 31 18 12 11 6 0 353 351 348 342 337
100 100 98 97 96 96 93 77 55 59 59 63 69 80 74 72 64 53 50 45 39 32 45 57 54 46 42 41 39 37 38 34 19 12 13 12 3 354 348 345 342 344 342
100 100 103 108 110 110 109 106 97 70 60 61 66 74 80 74 60 48 38 28 21 35 57 59 56 48 40 36 34 29 25 27 19 10 6 2 355 353 353 352 352 351 346
90 90 93 99 105 110 115 118 117 114 103 84 68 70 78 71 52 33 25 25 55 63 58 57 54 49 43 35 30 23 19 21 18 6 5 4 -0 356 356 353 352 351 339
81 86 86 93 98 100 105 108 108 108 110 114 113 98 88 83 40 18 24 42 59 60 56 51 47 45 39 33 26 20 21 23 17 9 13 6 2 358 355 350 345 343 337
90 92 91 95 98 97 95 98 100 103 104 104 102 96 123 159 97 74 59 48 55 54 49 50 47 44 39 29 26 20 19 23 18 13 9 2 0 358 351 345 344 342 340
99 99 94 89 87 89 90 91 93 96 97 95 86 61 36 65 70 68 63 55 53 52 44 39 46 43 37 27 23 21 22 22 16 7 0 353 351 347 339 338 339 340 337
106 113 107 98 94 90 91 94 95 93 92 96 103 90 57 62 64 63 63 61 56 52 47 38 39 42 35 26 24 23 22 18 8 358 350 342 336 332 332 337 340 335 333
90 93 92 91 95 101 97 86 82 82 83 82 78 73 70 64 65 62 61 57 53 53 50 45 46 41 34 32 38 35 23 11 354 343 338 334 330 329 333 336 334 335 335
91 95 100 102 98 92 86 83 82 82 82 79 78 78 77 76 73 68 61 57 55 53 50 50 53 49 41 36 39 40 28 2 341 335 332 321 319 327 332 330 329 331 329
85 88 93 92 89 86 84 83 81 78 80 81 80 80 81 80 78 74 70 67 66 62 56 55 54 52 51 49 40 30 12 354 345 335 321 312 317 326 329 327 328 329 335
84 85 85 86 83 82 83 83 82 83 82 82 79 77 74 74 73 65 55 48 62 67 63 65 64 60 54 50 42 32 9 354 346 335 318 309 316 331 337 330 335 337 339